SVA737 OPLA-OERK

Flight info

Callsign SVA737
Flight time 4h 26m
Altitude 32000
Route VEREN G214 PG T385 TAPDO G652 TULBU M628 PEKEM/N0483F280 M628 MIGMA M550 MEVDO Y511 BOSOB M321 RESAL
Aircraft B77W/H-SDE1E2E3FGHIJ2J3J4J5M1RWXY/LB1D1

Departure

Time 2026-04-15 07:19
Airport Allama Iqbal International Airport (OPLA)

Arrival

Time 2026-04-15 11:46
Airport King Khalid International Airport (OERK)
Time Latitude Longitude Altitude Speed Heading
2026-04-15 06:09 31.52170 74.40941 703 ft 0 kts 90°
2026-04-15 07:06 31.52170 74.40940 742 ft 1 kts 90°
2026-04-15 07:06 31.52170 74.40924 713 ft 3 kts 90°
2026-04-15 07:06 31.52170 74.40906 717 ft 3 kts 90°
2026-04-15 07:07 31.52170 74.40886 725 ft 2 kts 91°
2026-04-15 07:07 31.52172 74.40865 725 ft 3 kts 108°
2026-04-15 07:07 31.52178 74.40849 726 ft 3 kts 135°
2026-04-15 07:07 31.52188 74.40840 726 ft 3 kts 168°
2026-04-15 07:08 31.52206 74.40838 723 ft 3 kts 183°
2026-04-15 07:08 31.52226 74.40840 724 ft 2 kts 181°
2026-04-15 07:08 31.52234 74.40840 724 ft 1 kts 180°
2026-04-15 07:08 31.52235 74.40840 724 ft 0 kts 180°
2026-04-15 07:12 31.52222 74.40840 728 ft 4 kts 180°
2026-04-15 07:12 31.52177 74.40840 726 ft 7 kts 180°
2026-04-15 07:12 31.52125 74.40839 726 ft 7 kts 180°
2026-04-15 07:13 31.52073 74.40839 726 ft 7 kts 180°
2026-04-15 07:13 31.52022 74.40838 727 ft 7 kts 180°
2026-04-15 07:13 31.51961 74.40838 728 ft 11 kts 180°
2026-04-15 07:13 31.51885 74.40837 727 ft 11 kts 180°
2026-04-15 07:14 31.51810 74.40837 727 ft 11 kts 182°
2026-04-15 07:14 31.51736 74.40821 727 ft 11 kts 209°
2026-04-15 07:14 31.51710 74.40743 726 ft 11 kts 269°
2026-04-15 07:14 31.51680 74.40666 727 ft 11 kts 215°
2026-04-15 07:15 31.51605 74.40656 726 ft 11 kts 179°
2026-04-15 07:15 31.51528 74.40656 724 ft 11 kts 180°
2026-04-15 07:15 31.51445 74.40656 723 ft 13 kts 179°
2026-04-15 07:15 31.51347 74.40658 721 ft 15 kts 179°
2026-04-15 07:16 31.51243 74.40657 720 ft 15 kts 181°
2026-04-15 07:16 31.51138 74.40653 721 ft 15 kts 182°
2026-04-15 07:16 31.51033 74.40649 722 ft 15 kts 181°
2026-04-15 07:16 31.50929 74.40645 719 ft 15 kts 182°
2026-04-15 07:17 31.50824 74.40637 721 ft 15 kts 186°
2026-04-15 07:17 31.50733 74.40591 723 ft 9 kts 224°
2026-04-15 07:17 31.50689 74.40538 725 ft 9 kts 231°
2026-04-15 07:17 31.50674 74.40468 720 ft 9 kts 285°
2026-04-15 07:18 31.50730 74.40436 722 ft 10 kts 354°
2026-04-15 07:18 31.50819 74.40437 723 ft 24 kts
2026-04-15 07:18 31.51155 74.40442 721 ft 84 kts
2026-04-15 07:18 31.51987 74.40455 726 ft 153 kts
2026-04-15 07:19 31.53208 74.40459 917 ft 188 kts 359°
2026-04-15 07:19 31.54545 74.40488 1661 ft 190 kts 358°
2026-04-15 07:19 31.55862 74.40522 2520 ft 189 kts 359°
2026-04-15 07:19 31.57184 74.40362 3011 ft 200 kts 333°
2026-04-15 07:20 31.58156 74.39154 3238 ft 219 kts 290°
2026-04-15 07:21 31.56294 74.31160 5560 ft 268 kts 252°
2026-04-15 07:21 31.55667 74.29082 6355 ft 272 kts 253°
2026-04-15 07:21 31.55047 74.26983 7173 ft 274 kts 253°
2026-04-15 07:21 31.54426 74.24853 7938 ft 278 kts 253°
2026-04-15 07:22 31.53802 74.22697 8731 ft 281 kts 253°
2026-04-15 07:22 31.53173 74.20518 9518 ft 284 kts 253°
2026-04-15 07:22 31.52454 74.18352 10162 ft 290 kts 241°
2026-04-15 07:22 31.51024 74.16572 10418 ft 318 kts 214°
2026-04-15 07:23 31.48978 74.15382 10601 ft 341 kts 206°
2026-04-15 07:23 31.47571 74.14653 10723 ft 357 kts 206°
2026-04-15 07:23 31.44401 74.13030 11230 ft 381 kts 205°
2026-04-15 07:23 31.41950 74.11773 11925 ft 389 kts 205°
2026-04-15 07:24 31.40303 74.10922 12465 ft 393 kts 206°
2026-04-15 07:24 31.36971 74.09186 13640 ft 397 kts 206°
2026-04-15 07:24 31.35265 74.08292 14175 ft 400 kts 206°
2026-04-15 07:24 31.31881 74.06513 15231 ft 405 kts 206°
2026-04-15 07:25 31.30142 74.05600 15790 ft 407 kts 206°
2026-04-15 07:25 31.26702 74.03791 16863 ft 410 kts 207°
2026-04-15 07:25 31.25007 74.02715 17248 ft 413 kts 217°
2026-04-15 07:25 31.22953 74.00385 17872 ft 411 kts 232°
2026-04-15 07:26 31.21137 73.97766 18440 ft 418 kts 232°
2026-04-15 07:26 31.19278 73.95144 19212 ft 419 kts 232°
2026-04-15 07:26 31.17403 73.92536 20011 ft 420 kts 232°
2026-04-15 07:26 31.15510 73.89927 20740 ft 423 kts 232°
2026-04-15 07:27 31.13596 73.87304 21415 ft 427 kts 232°
2026-04-15 07:27 31.11686 73.84692 22052 ft 430 kts 232°
2026-04-15 07:27 31.09733 73.82029 22717 ft 433 kts 232°
2026-04-15 07:27 31.07765 73.79347 23376 ft 436 kts 232°
2026-04-15 07:28 31.05787 73.76653 23920 ft 438 kts 232°
2026-04-15 07:28 31.03800 73.73949 24501 ft 440 kts 233°
2026-04-15 07:28 31.01803 73.71233 25064 ft 441 kts 233°
2026-04-15 07:28 30.99802 73.68515 25638 ft 443 kts 233°
2026-04-15 07:29 30.97787 73.65777 26164 ft 445 kts 233°
2026-04-15 07:29 30.95763 73.63029 26678 ft 447 kts 233°
2026-04-15 07:29 30.93732 73.60273 27190 ft 449 kts 233°
2026-04-15 07:29 30.91691 73.57507 27694 ft 451 kts 233°
2026-04-15 07:30 30.89642 73.54731 28184 ft 453 kts 233°
2026-04-15 07:30 30.87582 73.51942 28629 ft 455 kts 233°
2026-04-15 07:30 30.85512 73.49143 29055 ft 457 kts 233°
2026-04-15 07:30 30.83430 73.46328 29470 ft 459 kts 233°
2026-04-15 07:31 30.81345 73.43512 29871 ft 460 kts 233°
2026-04-15 07:31 30.79256 73.40693 30326 ft 458 kts 233°
2026-04-15 07:31 30.77183 73.37901 30904 ft 453 kts 233°
2026-04-15 07:31 30.75130 73.35136 31487 ft 448 kts 234°
2026-04-15 07:32 30.73103 73.32405 32026 ft 444 kts 234°
2026-04-15 07:32 30.71119 73.29732 32500 ft 442 kts 234°
2026-04-15 07:32 30.69090 73.27001 32969 ft 439 kts 234°
2026-04-15 07:32 30.67129 73.24358 33433 ft 436 kts 235°
2026-04-15 07:33 30.65167 73.21686 33869 ft 433 kts 235°
2026-04-15 07:33 30.63224 73.19025 34218 ft 431 kts 235°
2026-04-15 07:33 30.61290 73.16374 34563 ft 429 kts 235°
2026-04-15 07:33 30.59367 73.13739 34880 ft 428 kts 236°
2026-04-15 07:34 30.57441 73.11103 35203 ft 426 kts 236°
2026-04-15 07:34 30.55526 73.08487 35532 ft 424 kts 236°
2026-04-15 07:34 30.53617 73.05881 35711 ft 426 kts 236°
2026-04-15 07:34 30.51689 73.03248 35750 ft 428 kts 236°
2026-04-15 07:35 30.47844 72.98015 35777 ft 423 kts 236°
2026-04-15 07:35 30.44049 72.92859 35790 ft 419 kts 236°
2026-04-15 07:36 30.40272 72.87727 35791 ft 418 kts 236°
2026-04-15 07:36 30.36492 72.82597 35792 ft 418 kts 236°
2026-04-15 07:37 30.32707 72.77470 35792 ft 419 kts 236°
2026-04-15 07:37 30.28919 72.72344 35792 ft 420 kts 235°
2026-04-15 07:38 30.25115 72.67204 35791 ft 421 kts 235°
2026-04-15 07:38 30.21308 72.62066 35789 ft 421 kts 235°
2026-04-15 07:39 30.17481 72.56942 35791 ft 421 kts 235°
2026-04-15 07:39 30.13619 72.51841 35790 ft 421 kts 235°
2026-04-15 07:40 30.09758 72.46745 35791 ft 421 kts 235°
2026-04-15 07:40 30.05909 72.41663 35791 ft 420 kts 235°
2026-04-15 07:41 30.02064 72.36590 35791 ft 419 kts 235°
2026-04-15 07:41 29.98230 72.31536 35793 ft 419 kts 235°
2026-04-15 07:42 29.94387 72.26478 35791 ft 418 kts 235°
2026-04-15 07:42 29.90556 72.21440 35793 ft 418 kts 235°
2026-04-15 07:43 29.86723 72.16409 35785 ft 417 kts 235°
2026-04-15 07:43 29.82883 72.11393 35789 ft 417 kts 234°
2026-04-15 07:44 29.79038 72.06382 35790 ft 417 kts 234°
2026-04-15 07:44 29.75196 72.01379 35788 ft 417 kts 234°
2026-04-15 07:45 29.71354 71.96378 35788 ft 416 kts 234°
2026-04-15 07:45 29.67517 71.91391 35789 ft 416 kts 234°
2026-04-15 07:46 29.63703 71.86440 35788 ft 416 kts 234°
2026-04-15 07:46 29.59870 71.81470 35791 ft 415 kts 234°
2026-04-15 07:47 29.56031 71.76499 35785 ft 415 kts 234°
2026-04-15 07:47 29.52201 71.71544 35782 ft 415 kts 234°
2026-04-15 07:48 29.48372 71.66599 35789 ft 414 kts 234°
2026-04-15 07:48 29.44546 71.61662 35786 ft 414 kts 234°
2026-04-15 07:49 29.40718 71.56728 35785 ft 413 kts 234°
2026-04-15 07:49 29.36897 71.51809 35787 ft 413 kts 234°
2026-04-15 07:50 29.33078 71.46898 35785 ft 412 kts 234°
2026-04-15 07:50 29.29258 71.41994 35782 ft 412 kts 234°
2026-04-15 07:51 29.25397 71.37125 35786 ft 412 kts 234°
2026-04-15 07:51 29.21524 71.32284 35804 ft 412 kts 234°
2026-04-15 07:52 29.17648 71.27437 35784 ft 412 kts 233°
2026-04-15 07:52 29.13778 71.22596 35778 ft 412 kts 233°
2026-04-15 07:53 29.09929 71.17785 35777 ft 412 kts 233°
2026-04-15 07:53 29.06060 71.12953 35787 ft 412 kts 233°
2026-04-15 07:54 29.02180 71.08115 35787 ft 412 kts 233°
2026-04-15 07:54 28.98295 71.03275 35787 ft 412 kts 233°
2026-04-15 07:55 28.94413 70.98445 35792 ft 412 kts 233°
2026-04-15 07:56 28.88585 70.91205 35791 ft 413 kts 233°
2026-04-15 07:56 28.84696 70.86381 35787 ft 413 kts 233°
2026-04-15 07:57 28.80805 70.81559 35785 ft 413 kts 233°
2026-04-15 07:57 28.76908 70.76737 35791 ft 413 kts 233°
2026-04-15 07:58 28.73037 70.71953 35794 ft 413 kts 233°
2026-04-15 07:58 28.69135 70.67135 35791 ft 414 kts 233°
2026-04-15 07:59 28.65228 70.62316 35790 ft 414 kts 233°
2026-04-15 07:59 28.61324 70.57507 35789 ft 414 kts 233°
2026-04-15 08:00 28.57409 70.52691 35789 ft 414 kts 233°
2026-04-15 08:00 28.53493 70.47879 35789 ft 414 kts 233°
2026-04-15 08:01 28.49576 70.43070 35790 ft 414 kts 233°
2026-04-15 08:01 28.45656 70.38262 35790 ft 414 kts 233°
2026-04-15 08:02 28.41736 70.33461 35789 ft 414 kts 232°
2026-04-15 08:02 28.37984 70.28522 35791 ft 410 kts 238°
2026-04-15 08:03 28.34911 70.23128 35787 ft 407 kts 244°
2026-04-15 08:03 28.32394 70.17381 35788 ft 407 kts 247°
2026-04-15 08:04 28.29932 70.11589 35793 ft 408 kts 247°
2026-04-15 08:04 28.27455 70.05789 35789 ft 409 kts 246°
2026-04-15 08:05 28.24963 69.99989 35787 ft 409 kts 246°
2026-04-15 08:05 28.22461 69.94187 35792 ft 410 kts 246°
2026-04-15 08:06 28.19953 69.88379 35785 ft 410 kts 246°
2026-04-15 08:06 28.17459 69.82612 35785 ft 410 kts 246°
2026-04-15 08:07 28.14949 69.76817 35783 ft 410 kts 246°
2026-04-15 08:07 28.12436 69.71022 35785 ft 409 kts 246°
2026-04-15 08:08 28.09922 69.65232 35781 ft 409 kts 246°
2026-04-15 08:08 28.07835 69.60432 35781 ft 409 kts 246°
2026-04-15 08:09 28.04889 69.53668 35783 ft 409 kts 246°
2026-04-15 08:09 28.02795 69.48866 35780 ft 409 kts 246°
2026-04-15 08:10 28.00274 69.43092 35776 ft 409 kts 246°
2026-04-15 08:10 27.97748 69.37317 35795 ft 409 kts 246°
2026-04-15 08:11 27.95218 69.31537 35781 ft 410 kts 246°
2026-04-15 08:11 27.92687 69.25763 35783 ft 410 kts 246°
2026-04-15 08:12 27.90147 69.19989 35776 ft 410 kts 246°
2026-04-15 08:12 27.87596 69.14230 35776 ft 410 kts 246°
2026-04-15 08:13 27.85037 69.08460 35789 ft 410 kts 246°
2026-04-15 08:13 27.82478 69.02693 35791 ft 410 kts 245°
2026-04-15 08:14 27.79917 68.96928 35786 ft 411 kts 245°
2026-04-15 08:14 27.77355 68.91167 35781 ft 411 kts 245°
2026-04-15 08:15 27.74787 68.85402 35783 ft 411 kts 245°
2026-04-15 08:15 27.72590 68.79472 35785 ft 409 kts 252°
2026-04-15 08:16 27.71127 68.73284 35784 ft 408 kts 259°
2026-04-15 08:16 27.70099 68.66977 35778 ft 408 kts 259°
2026-04-15 08:17 27.69098 68.60704 35767 ft 409 kts 259°
2026-04-15 08:17 27.68077 68.54396 35762 ft 409 kts 259°
2026-04-15 08:18 27.67043 68.48086 35774 ft 409 kts 259°
2026-04-15 08:18 27.66003 68.41780 35778 ft 409 kts 259°
2026-04-15 08:19 27.64959 68.35467 35780 ft 409 kts 259°
2026-04-15 08:19 27.63912 68.29154 35779 ft 409 kts 259°
2026-04-15 08:20 27.62862 68.22841 35768 ft 409 kts 259°
2026-04-15 08:20 27.61816 68.16568 35760 ft 409 kts 258°
2026-04-15 08:21 27.60760 68.10258 35767 ft 409 kts 258°
2026-04-15 08:21 27.59701 68.03947 35754 ft 409 kts 258°
2026-04-15 08:22 27.58641 67.97646 35776 ft 409 kts 258°
2026-04-15 08:22 27.57579 67.91348 35774 ft 409 kts 258°
2026-04-15 08:23 27.56512 67.85043 35761 ft 409 kts 258°
2026-04-15 08:23 27.55441 67.78734 35755 ft 410 kts 258°
2026-04-15 08:24 27.54368 67.72428 35773 ft 410 kts 258°
2026-04-15 08:24 27.53292 67.66126 35778 ft 410 kts 258°
2026-04-15 08:25 27.52211 67.59811 35787 ft 410 kts 258°
2026-04-15 08:25 27.51129 67.53502 35791 ft 410 kts 258°
2026-04-15 08:26 27.50042 67.47187 35799 ft 410 kts 258°
2026-04-15 08:26 27.48952 67.40876 35799 ft 410 kts 258°
2026-04-15 08:27 27.47866 67.34597 35819 ft 411 kts 258°
2026-04-15 08:27 27.46770 67.28280 35825 ft 412 kts 258°
2026-04-15 08:28 27.45669 67.21929 35817 ft 414 kts 258°
2026-04-15 08:28 27.44675 67.15559 35845 ft 412 kts 259°
2026-04-15 08:29 27.43727 67.09211 35857 ft 410 kts 259°
2026-04-15 08:29 27.42772 67.02888 35882 ft 411 kts 259°
2026-04-15 08:30 27.41798 66.96512 35836 ft 413 kts 259°
2026-04-15 08:30 27.40816 66.90156 35851 ft 411 kts 259°
2026-04-15 08:31 27.39841 66.83830 35859 ft 409 kts 259°
2026-04-15 08:31 27.38869 66.77546 35866 ft 406 kts 259°
2026-04-15 08:32 27.37893 66.71276 35866 ft 407 kts 259°
2026-04-15 08:32 27.36913 66.64994 35869 ft 409 kts 259°
2026-04-15 08:33 27.35928 66.58698 35864 ft 414 kts 259°
2026-04-15 08:33 27.34932 66.52352 35874 ft 413 kts 259°
2026-04-15 08:34 27.33932 66.45992 35870 ft 411 kts 259°
2026-04-15 08:34 27.32938 66.39686 35863 ft 409 kts 259°
2026-04-15 08:35 27.31943 66.33398 35863 ft 408 kts 259°
2026-04-15 08:35 27.30945 66.27117 35864 ft 409 kts 259°
2026-04-15 08:36 27.29941 66.20807 35858 ft 411 kts 259°
2026-04-15 08:36 27.28931 66.14480 35861 ft 412 kts 259°
2026-04-15 08:37 27.27914 66.08128 35859 ft 413 kts 259°
2026-04-15 08:37 27.26891 66.01761 35855 ft 414 kts 259°
2026-04-15 08:38 27.25863 65.95387 35861 ft 415 kts 259°
2026-04-15 08:38 27.24831 65.89004 35855 ft 415 kts 259°
2026-04-15 08:39 27.23796 65.82618 35870 ft 415 kts 259°
2026-04-15 08:39 27.22758 65.76237 35865 ft 415 kts 259°
2026-04-15 08:40 27.21896 65.70948 35864 ft 414 kts 258°
2026-04-15 08:40 27.20856 65.64585 35863 ft 414 kts 259°
2026-04-15 08:41 27.19639 65.57161 35866 ft 413 kts 258°
2026-04-15 08:41 27.18596 65.50816 35883 ft 413 kts 259°
2026-04-15 08:42 27.17545 65.44446 35869 ft 415 kts 258°
2026-04-15 08:42 27.16667 65.39138 35868 ft 416 kts 258°
2026-04-15 08:43 27.15430 65.31680 35865 ft 416 kts 258°
2026-04-15 08:43 27.14373 65.25329 35866 ft 416 kts 258°
2026-04-15 08:44 27.13305 65.18933 35867 ft 416 kts 258°
2026-04-15 08:44 27.12236 65.12543 35860 ft 417 kts 258°
2026-04-15 08:45 27.11163 65.06155 35859 ft 417 kts 258°
2026-04-15 08:45 27.10087 64.99761 35856 ft 417 kts 258°
2026-04-15 08:46 27.09183 64.94405 35863 ft 417 kts 258°
2026-04-15 08:46 27.07925 64.86974 35859 ft 418 kts 258°
2026-04-15 08:47 27.06835 64.80558 35856 ft 418 kts 258°
2026-04-15 08:47 27.06106 64.76269 35854 ft 418 kts 258°
2026-04-15 08:48 27.04650 64.67737 35851 ft 419 kts 258°
2026-04-15 08:48 27.03552 64.61327 35849 ft 419 kts 258°
2026-04-15 08:49 27.02449 64.54906 35850 ft 419 kts 258°
2026-04-15 08:49 27.01349 64.48519 35845 ft 419 kts 258°
2026-04-15 08:50 27.00235 64.42066 35843 ft 419 kts 258°
2026-04-15 08:50 26.99130 64.35686 35840 ft 419 kts 258°
2026-04-15 08:51 26.98196 64.30308 35843 ft 419 kts 258°
2026-04-15 08:51 26.97079 64.23884 35844 ft 420 kts 258°
2026-04-15 08:52 26.95796 64.17551 35826 ft 419 kts 250°
2026-04-15 08:52 26.93108 64.11742 35832 ft 422 kts 239°
2026-04-15 08:53 26.89288 64.06713 35837 ft 426 kts 229°
2026-04-15 08:53 26.85064 64.02034 35832 ft 427 kts 228°
2026-04-15 08:54 26.80842 63.97357 35824 ft 427 kts 229°
2026-04-15 08:54 26.76634 63.92647 35830 ft 427 kts 229°
2026-04-15 08:55 26.72445 63.87937 35825 ft 427 kts 229°
2026-04-15 08:55 26.68284 63.83256 35814 ft 427 kts 229°
2026-04-15 08:56 26.64096 63.78552 35814 ft 427 kts 229°
2026-04-15 08:56 26.59904 63.73849 35811 ft 427 kts 229°
2026-04-15 08:57 26.55702 63.69141 35823 ft 427 kts 229°
2026-04-15 08:57 26.51538 63.64479 35823 ft 427 kts 229°
2026-04-15 08:58 26.47338 63.59784 35815 ft 427 kts 229°
2026-04-15 08:58 26.41035 63.52746 35809 ft 427 kts 229°
2026-04-15 08:59 26.36828 63.48056 35803 ft 428 kts 229°
2026-04-15 08:59 26.32618 63.43366 35805 ft 427 kts 228°
2026-04-15 09:00 26.28412 63.38686 35807 ft 427 kts 229°
2026-04-15 09:00 26.24198 63.34003 35802 ft 427 kts 229°
2026-04-15 09:01 26.20016 63.29360 35806 ft 427 kts 228°
2026-04-15 09:01 26.15811 63.24697 35805 ft 426 kts 228°
2026-04-15 09:02 26.11608 63.20039 35804 ft 427 kts 228°
2026-04-15 09:02 26.07395 63.15376 35796 ft 427 kts 228°
2026-04-15 09:03 26.03177 63.10712 35791 ft 427 kts 228°
2026-04-15 09:03 25.98970 63.06064 35791 ft 426 kts 228°
2026-04-15 09:04 25.94786 63.01436 35789 ft 426 kts 228°
2026-04-15 09:04 25.90578 62.96780 35786 ft 426 kts 228°
2026-04-15 09:05 25.86377 62.92135 35788 ft 426 kts 228°
2026-04-15 09:05 25.82176 62.87497 35783 ft 426 kts 228°
2026-04-15 09:06 25.77970 62.82857 35788 ft 426 kts 228°
2026-04-15 09:06 25.73761 62.78220 35788 ft 426 kts 228°
2026-04-15 09:07 25.69550 62.73585 35787 ft 426 kts 228°
2026-04-15 09:07 25.65337 62.68954 35793 ft 426 kts 228°
2026-04-15 09:08 25.61123 62.64325 35787 ft 426 kts 228°
2026-04-15 09:08 25.56903 62.59695 35793 ft 426 kts 228°
2026-04-15 09:09 25.52690 62.55078 35794 ft 426 kts 228°
2026-04-15 09:09 25.48497 62.50487 35798 ft 426 kts 227°
2026-04-15 09:10 25.44283 62.45878 35803 ft 426 kts 227°
2026-04-15 09:10 25.40055 62.41258 35811 ft 427 kts 227°
2026-04-15 09:11 25.35827 62.36643 35808 ft 427 kts 227°
2026-04-15 09:11 25.31599 62.32034 35806 ft 426 kts 227°
2026-04-15 09:12 25.27378 62.27437 35809 ft 426 kts 227°
2026-04-15 09:12 25.23187 62.22878 35811 ft 425 kts 227°
2026-04-15 09:13 25.18971 62.18294 35807 ft 425 kts 227°
2026-04-15 09:13 25.14756 62.13717 35817 ft 425 kts 227°
2026-04-15 09:14 25.10538 62.09142 35823 ft 425 kts 227°
2026-04-15 09:14 25.06317 62.04567 35821 ft 425 kts 227°
2026-04-15 09:15 25.02084 61.99986 35820 ft 425 kts 227°
2026-04-15 09:15 24.97860 61.95418 35825 ft 426 kts 227°
2026-04-15 09:16 24.93625 61.90843 35823 ft 426 kts 227°
2026-04-15 09:16 24.89411 61.86295 35827 ft 427 kts 227°
2026-04-15 09:17 24.85169 61.81721 35828 ft 427 kts 227°
2026-04-15 09:17 24.80925 61.77150 35830 ft 427 kts 227°
2026-04-15 09:18 24.76673 61.72574 35832 ft 427 kts 227°
2026-04-15 09:18 24.72415 61.67998 35832 ft 427 kts 227°
2026-04-15 09:19 24.68182 61.63453 35832 ft 427 kts 227°
2026-04-15 09:19 24.63927 61.58888 35836 ft 427 kts 226°
2026-04-15 09:20 24.59669 61.54325 35834 ft 427 kts 226°
2026-04-15 09:20 24.55408 61.49763 35835 ft 427 kts 226°
2026-04-15 09:21 24.51146 61.45203 35836 ft 427 kts 226°
2026-04-15 09:21 24.46889 61.40653 35839 ft 427 kts 226°
2026-04-15 09:22 24.42721 61.36033 35835 ft 425 kts 232°
2026-04-15 09:22 24.39485 61.30668 35847 ft 424 kts 241°
2026-04-15 09:23 24.37139 61.24750 35849 ft 424 kts 249°
2026-04-15 09:23 24.35201 61.18619 35838 ft 425 kts 250°
2026-04-15 09:24 24.33258 61.12494 35842 ft 425 kts 249°
2026-04-15 09:24 24.31287 61.06378 35842 ft 425 kts 249°
2026-04-15 09:25 24.29299 61.00258 35841 ft 425 kts 249°
2026-04-15 09:25 24.27311 60.94149 35841 ft 425 kts 249°
2026-04-15 09:26 24.25324 60.88050 35840 ft 425 kts 249°
2026-04-15 09:26 24.23342 60.81970 35839 ft 425 kts 249°
2026-04-15 09:27 24.21351 60.75875 35843 ft 425 kts 249°
2026-04-15 09:27 24.19351 60.69779 35840 ft 425 kts 249°
2026-04-15 09:28 24.17344 60.63685 35844 ft 425 kts 249°
2026-04-15 09:28 24.15338 60.57601 35843 ft 424 kts 249°
2026-04-15 09:29 24.13333 60.51523 35843 ft 424 kts 249°
2026-04-15 09:29 24.11326 60.45448 35845 ft 424 kts 249°
2026-04-15 09:30 24.09318 60.39380 35843 ft 424 kts 249°
2026-04-15 09:30 24.07305 60.33306 35842 ft 424 kts 249°
2026-04-15 09:31 24.05293 60.27244 35843 ft 424 kts 248°
2026-04-15 09:31 24.03289 60.21215 35849 ft 424 kts 248°
2026-04-15 09:32 24.01273 60.15156 35847 ft 424 kts 248°
2026-04-15 09:32 23.99252 60.09094 35847 ft 424 kts 248°
2026-04-15 09:33 23.97228 60.03032 35848 ft 424 kts 248°
2026-04-15 09:33 23.95203 59.96977 35851 ft 424 kts 248°
2026-04-15 09:34 23.93177 59.90926 35850 ft 424 kts 248°
2026-04-15 09:34 23.91147 59.84874 35848 ft 424 kts 248°
2026-04-15 09:35 23.89115 59.78821 35849 ft 424 kts 248°
2026-04-15 09:35 23.87080 59.72771 35851 ft 424 kts 248°
2026-04-15 09:36 23.85055 59.66757 35849 ft 424 kts 248°
2026-04-15 09:36 23.83014 59.60706 35850 ft 424 kts 248°
2026-04-15 09:37 23.80976 59.54672 35849 ft 424 kts 248°
2026-04-15 09:37 23.78924 59.48648 35850 ft 423 kts 247°
2026-04-15 09:38 23.76773 59.42658 35850 ft 423 kts 247°
2026-04-15 09:38 23.74966 59.37687 35851 ft 424 kts 247°
2026-04-15 09:39 23.72799 59.31708 35850 ft 424 kts 247°
2026-04-15 09:39 23.70638 59.25726 35849 ft 424 kts 247°
2026-04-15 09:40 23.68478 59.19748 35849 ft 424 kts 247°
2026-04-15 09:40 23.66310 59.13758 35851 ft 424 kts 247°
2026-04-15 09:41 23.64141 59.07773 35851 ft 424 kts 246°
2026-04-15 09:41 23.61969 59.01787 35846 ft 425 kts 246°
2026-04-15 09:42 23.59791 58.95794 35849 ft 425 kts 246°
2026-04-15 09:42 23.57608 58.89795 35854 ft 425 kts 246°
2026-04-15 09:43 23.55428 58.83811 35854 ft 425 kts 246°
2026-04-15 09:43 23.53243 58.77825 35851 ft 425 kts 246°
2026-04-15 09:44 23.51072 58.71882 35864 ft 425 kts 246°
2026-04-15 09:44 23.48877 58.65883 35853 ft 426 kts 246°
2026-04-15 09:45 23.46680 58.59889 35855 ft 426 kts 246°
2026-04-15 09:45 23.44482 58.53895 35858 ft 427 kts 246°
2026-04-15 09:46 23.42277 58.47888 35850 ft 426 kts 246°
2026-04-15 09:46 23.40070 58.41910 35854 ft 426 kts 246°
2026-04-15 09:47 23.37803 58.35961 35868 ft 425 kts 245°
2026-04-15 09:47 23.35523 58.30017 35872 ft 426 kts 245°
2026-04-15 09:48 23.33240 58.24054 35873 ft 428 kts 245°
2026-04-15 09:48 23.30955 58.18078 35882 ft 427 kts 245°
2026-04-15 09:49 23.28665 58.12100 35881 ft 428 kts 245°
2026-04-15 09:49 23.26388 58.06159 35853 ft 428 kts 245°
2026-04-15 09:50 23.24111 58.00201 35891 ft 428 kts 246°
2026-04-15 09:50 23.22003 57.94145 35894 ft 429 kts 247°
2026-04-15 09:51 23.19940 57.88039 35902 ft 430 kts 247°
2026-04-15 09:51 23.17855 57.81936 35912 ft 431 kts 247°
2026-04-15 09:52 23.15747 57.75827 35898 ft 433 kts 246°
2026-04-15 09:52 23.13635 57.69717 35924 ft 431 kts 246°
2026-04-15 09:53 23.11513 57.63597 35915 ft 432 kts 246°
2026-04-15 09:53 23.09395 57.57496 35921 ft 431 kts 246°
2026-04-15 09:54 23.07279 57.51402 35932 ft 431 kts 246°
2026-04-15 09:54 23.05180 57.45369 35932 ft 428 kts 246°
2026-04-15 09:55 23.03081 57.39343 35940 ft 425 kts 246°
2026-04-15 09:55 23.01206 57.33261 35939 ft 427 kts 253°
2026-04-15 09:56 23.00301 57.26856 35945 ft 431 kts 260°
2026-04-15 09:57 23.00392 57.17019 35959 ft 436 kts 266°
2026-04-15 09:57 23.00599 57.10441 35949 ft 435 kts 266°
2026-04-15 09:58 23.00765 57.03876 35968 ft 435 kts 266°
2026-04-15 09:58 23.00919 56.97290 35962 ft 436 kts 266°
2026-04-15 09:59 23.01079 56.90700 35969 ft 437 kts 266°
2026-04-15 09:59 23.01238 56.84110 35964 ft 437 kts 266°
2026-04-15 10:00 23.01394 56.77558 35969 ft 437 kts 266°
2026-04-15 10:00 23.01548 56.70955 35963 ft 438 kts 266°
2026-04-15 10:01 23.01698 56.64349 35970 ft 436 kts 265°
2026-04-15 10:01 23.01847 56.57785 35958 ft 435 kts 266°
2026-04-15 10:02 23.01991 56.51197 35953 ft 437 kts 266°
2026-04-15 10:02 23.02133 56.44596 35948 ft 438 kts 266°
2026-04-15 10:03 23.02274 56.37980 35946 ft 439 kts 266°
2026-04-15 10:03 23.02411 56.31356 35940 ft 439 kts 266°
2026-04-15 10:04 23.02535 56.24731 35939 ft 439 kts 266°
2026-04-15 10:04 23.02653 56.18103 35941 ft 438 kts 266°
2026-04-15 10:05 23.02768 56.11492 35937 ft 438 kts 266°
2026-04-15 10:05 23.02882 56.04887 35939 ft 438 kts 266°
2026-04-15 10:06 23.02993 55.98316 35933 ft 438 kts 266°
2026-04-15 10:06 23.03102 55.91719 35934 ft 437 kts 266°
2026-04-15 10:07 23.03223 55.85106 35931 ft 438 kts 266°
2026-04-15 10:07 23.03351 55.78491 35932 ft 437 kts 266°
2026-04-15 10:08 23.03473 55.71885 35928 ft 437 kts 266°
2026-04-15 10:08 23.03592 55.65284 35931 ft 437 kts 266°
2026-04-15 10:09 23.03708 55.58685 35931 ft 437 kts 266°
2026-04-15 10:09 23.03820 55.52090 35933 ft 437 kts 266°
2026-04-15 10:10 23.03907 55.45526 35927 ft 437 kts 266°
2026-04-15 10:10 23.03989 55.38933 35930 ft 437 kts 266°
2026-04-15 10:11 23.04025 55.32337 35930 ft 435 kts 263°
2026-04-15 10:11 23.03294 55.25859 35931 ft 430 kts 254°
2026-04-15 10:12 23.01971 55.19530 35933 ft 430 kts 254°
2026-04-15 10:12 23.00726 55.13202 35932 ft 431 kts 255°
2026-04-15 10:13 22.99487 55.06839 35934 ft 432 kts 255°
2026-04-15 10:13 22.98234 55.00442 35940 ft 432 kts 255°
2026-04-15 10:14 22.96975 54.94056 35931 ft 433 kts 255°
2026-04-15 10:14 22.95710 54.87657 35938 ft 434 kts 255°
2026-04-15 10:15 22.94450 54.81301 35934 ft 434 kts 255°
2026-04-15 10:15 22.93178 54.74891 35938 ft 434 kts 255°
2026-04-15 10:16 22.91902 54.68480 35940 ft 434 kts 255°
2026-04-15 10:16 22.90624 54.62070 35941 ft 435 kts 255°
2026-04-15 10:17 22.89343 54.55663 35939 ft 435 kts 255°
2026-04-15 10:17 22.88059 54.49254 35940 ft 435 kts 255°
2026-04-15 10:18 22.86773 54.42846 35943 ft 435 kts 255°
2026-04-15 10:18 22.85484 54.36435 35944 ft 435 kts 255°
2026-04-15 10:19 22.84190 54.30022 35943 ft 435 kts 255°
2026-04-15 10:19 22.82895 54.23611 35944 ft 435 kts 255°
2026-04-15 10:20 22.81606 54.17244 35947 ft 436 kts 255°
2026-04-15 10:20 22.80302 54.10814 35946 ft 436 kts 255°
2026-04-15 10:21 22.78997 54.04397 35950 ft 437 kts 255°
2026-04-15 10:21 22.78159 53.97848 35952 ft 441 kts 263°
2026-04-15 10:22 22.78218 53.91184 35958 ft 444 kts 268°
2026-04-15 10:22 22.78471 53.84488 35958 ft 444 kts 268°
2026-04-15 10:23 22.78711 53.77839 35949 ft 444 kts 268°
2026-04-15 10:23 22.78935 53.71149 35959 ft 444 kts 268°
2026-04-15 10:24 22.79150 53.64463 35961 ft 444 kts 268°
2026-04-15 10:24 22.79361 53.57759 35959 ft 444 kts 268°
2026-04-15 10:25 22.79568 53.51059 35959 ft 445 kts 268°
2026-04-15 10:25 22.79774 53.44352 35966 ft 445 kts 268°
2026-04-15 10:26 22.79943 53.38775 35964 ft 445 kts 268°
2026-04-15 10:26 22.80178 53.30930 35966 ft 446 kts 268°
2026-04-15 10:27 22.80343 53.25347 35969 ft 446 kts 268°
2026-04-15 10:27 22.80538 53.18639 35975 ft 446 kts 268°
2026-04-15 10:28 22.80729 53.11956 35971 ft 446 kts 268°
2026-04-15 10:28 22.80919 53.05253 35978 ft 445 kts 268°
2026-04-15 10:29 22.81107 52.98533 35978 ft 445 kts 268°
2026-04-15 10:29 22.81290 52.91844 35981 ft 444 kts 268°
2026-04-15 10:30 22.81471 52.85152 35979 ft 444 kts 268°
2026-04-15 10:30 22.81649 52.78467 35984 ft 443 kts 268°
2026-04-15 10:31 22.81824 52.71799 35984 ft 443 kts 268°
2026-04-15 10:31 22.81994 52.65171 35987 ft 442 kts 268°
2026-04-15 10:32 22.82164 52.58462 35984 ft 442 kts 268°
2026-04-15 10:32 22.82330 52.51841 35993 ft 442 kts 268°
2026-04-15 10:33 22.82488 52.45170 35990 ft 442 kts 268°
2026-04-15 10:33 22.82628 52.38501 35993 ft 442 kts 268°
2026-04-15 10:34 22.82764 52.31829 35992 ft 443 kts 268°
2026-04-15 10:34 22.82899 52.25154 36001 ft 443 kts 268°
2026-04-15 10:35 22.83033 52.18485 35994 ft 443 kts 268°
2026-04-15 10:35 22.83163 52.11850 35998 ft 442 kts 268°
2026-04-15 10:36 22.83291 52.05188 35997 ft 442 kts 267°
2026-04-15 10:36 22.83416 51.98518 36000 ft 442 kts 267°
2026-04-15 10:37 22.83539 51.91847 36000 ft 442 kts 267°
2026-04-15 10:37 22.83658 51.85191 36006 ft 441 kts 267°
2026-04-15 10:38 22.83775 51.78536 36004 ft 441 kts 267°
2026-04-15 10:38 22.83889 51.71893 36005 ft 441 kts 267°
2026-04-15 10:39 22.84000 51.65250 36006 ft 440 kts 267°
2026-04-15 10:39 22.84108 51.58624 36010 ft 440 kts 267°
2026-04-15 10:40 22.84214 51.51983 36012 ft 439 kts 267°
2026-04-15 10:40 22.84064 51.45393 36021 ft 436 kts 261°
2026-04-15 10:41 22.83037 51.38948 36017 ft 433 kts 256°
2026-04-15 10:41 22.81882 51.32539 36009 ft 434 kts 256°
2026-04-15 10:42 22.80746 51.26113 36024 ft 434 kts 256°
2026-04-15 10:42 22.79623 51.19718 36024 ft 435 kts 256°
2026-04-15 10:43 22.78489 51.13273 36012 ft 436 kts 256°
2026-04-15 10:43 22.77339 51.06821 36022 ft 436 kts 256°
2026-04-15 10:44 22.76177 51.00369 36026 ft 436 kts 256°
2026-04-15 10:44 22.75012 50.93913 36011 ft 436 kts 256°
2026-04-15 10:45 22.73849 50.87475 36022 ft 436 kts 256°
2026-04-15 10:45 22.72685 50.81037 36020 ft 435 kts 255°
2026-04-15 10:46 22.71520 50.74610 36021 ft 434 kts 255°
2026-04-15 10:46 22.70354 50.68195 36022 ft 434 kts 255°
2026-04-15 10:47 22.69184 50.61777 36025 ft 433 kts 255°
2026-04-15 10:47 22.68022 50.55413 36023 ft 433 kts 255°
2026-04-15 10:48 22.66852 50.49021 36031 ft 433 kts 255°
2026-04-15 10:48 22.65677 50.42617 36038 ft 433 kts 255°
2026-04-15 10:49 22.64501 50.36222 36040 ft 433 kts 255°
2026-04-15 10:49 22.63323 50.29833 36034 ft 433 kts 255°
2026-04-15 10:50 22.62144 50.23454 36030 ft 432 kts 255°
2026-04-15 10:50 22.60963 50.17074 36042 ft 432 kts 255°
2026-04-15 10:51 22.59780 50.10701 36047 ft 432 kts 255°
2026-04-15 10:51 22.58597 50.04339 36028 ft 431 kts 255°
2026-04-15 10:52 22.57411 49.97983 36046 ft 430 kts 255°
2026-04-15 10:52 22.56234 49.91681 36034 ft 430 kts 255°
2026-04-15 10:53 22.55048 49.85346 36039 ft 429 kts 255°
2026-04-15 10:53 22.54055 49.78981 36038 ft 432 kts 261°
2026-04-15 10:54 22.53922 49.72469 36050 ft 436 kts 268°
2026-04-15 10:54 22.54500 49.65918 36054 ft 437 kts 270°
2026-04-15 10:55 22.55159 49.59394 36041 ft 436 kts 270°
2026-04-15 10:55 22.55801 49.52875 36057 ft 435 kts 270°
2026-04-15 10:56 22.56421 49.46374 36046 ft 434 kts 270°
2026-04-15 10:56 22.57030 49.39895 36043 ft 433 kts 270°
2026-04-15 10:57 22.57634 49.33420 36042 ft 432 kts 270°
2026-04-15 10:57 22.58534 49.23736 36057 ft 431 kts 270°
2026-04-15 10:58 22.59131 49.17289 36047 ft 430 kts 270°
2026-04-15 10:58 22.59725 49.10833 36060 ft 430 kts 270°
2026-04-15 10:59 22.60018 49.07609 36165 ft 432 kts 275°
2026-04-15 10:59 22.60313 49.04351 36129 ft 440 kts 275°
2026-04-15 10:59 22.60927 48.97658 36067 ft 452 kts 275°
2026-04-15 11:00 22.61546 48.90879 36055 ft 452 kts 275°
2026-04-15 11:00 22.62155 48.84157 36056 ft 451 kts 275°
2026-04-15 11:01 22.62763 48.77405 36050 ft 450 kts 275°
2026-04-15 11:01 22.63365 48.70681 36058 ft 448 kts 275°
2026-04-15 11:02 22.63962 48.63981 36059 ft 447 kts 276°
2026-04-15 11:02 22.64556 48.57294 36058 ft 446 kts 276°
2026-04-15 11:03 22.65141 48.50667 36055 ft 445 kts 276°
2026-04-15 11:03 22.65728 48.43984 36053 ft 445 kts 276°
2026-04-15 11:04 22.66312 48.37306 36059 ft 445 kts 276°
2026-04-15 11:04 22.66893 48.30632 36056 ft 446 kts 276°
2026-04-15 11:05 22.67473 48.23942 36054 ft 446 kts 276°
2026-04-15 11:05 22.68051 48.17236 36057 ft 447 kts 276°
2026-04-15 11:06 22.68623 48.10572 36051 ft 446 kts 276°
2026-04-15 11:06 22.69255 48.07306 36051 ft 443 kts 291°
2026-04-15 11:06 22.70681 48.04358 36069 ft 445 kts 303°
2026-04-15 11:07 22.75063 47.99621 36061 ft 451 kts 324°
2026-04-15 11:07 22.80472 47.96109 36066 ft 454 kts 326°
2026-04-15 11:08 22.85864 47.92610 36062 ft 454 kts 326°
2026-04-15 11:08 22.91239 47.89024 36062 ft 454 kts 325°
2026-04-15 11:09 22.96592 47.85417 36061 ft 453 kts 325°
2026-04-15 11:09 22.99275 47.83610 35951 ft 447 kts 325°
2026-04-15 11:09 23.01890 47.81852 35590 ft 439 kts 325°
2026-04-15 11:10 23.04495 47.80098 34754 ft 443 kts 325°
2026-04-15 11:10 23.07138 47.78319 33656 ft 452 kts 325°
2026-04-15 11:10 23.09838 47.76501 32465 ft 460 kts 326°
2026-04-15 11:10 23.12576 47.74656 31457 ft 465 kts 326°
2026-04-15 11:11 23.15319 47.72806 30804 ft 461 kts 326°
2026-04-15 11:11 23.18015 47.70986 30291 ft 454 kts 326°
2026-04-15 11:11 23.20680 47.69186 29747 ft 448 kts 326°
2026-04-15 11:11 23.23319 47.67402 29145 ft 443 kts 326°
2026-04-15 11:12 23.25883 47.65667 28555 ft 438 kts 326°
2026-04-15 11:12 23.28457 47.63925 27958 ft 434 kts 326°
2026-04-15 11:12 23.31010 47.62195 27358 ft 430 kts 327°
2026-04-15 11:12 23.33539 47.60481 26772 ft 426 kts 327°
2026-04-15 11:13 23.36044 47.58783 26241 ft 422 kts 327°
2026-04-15 11:13 23.38528 47.57098 25708 ft 418 kts 327°
2026-04-15 11:13 23.40991 47.55427 25167 ft 415 kts 327°
2026-04-15 11:13 23.43438 47.53766 24636 ft 412 kts 327°
2026-04-15 11:14 23.45836 47.52080 24111 ft 409 kts 322°
2026-04-15 11:14 23.47241 47.50731 23744 ft 406 kts 312°
2026-04-15 11:14 23.48914 47.48286 23014 ft 402 kts 306°
2026-04-15 11:14 23.51087 47.44964 22141 ft 401 kts 306°
2026-04-15 11:15 23.52164 47.43340 21791 ft 399 kts 307°
2026-04-15 11:15 23.53793 47.40904 21293 ft 395 kts 307°
2026-04-15 11:15 23.55412 47.38498 20770 ft 392 kts 307°
2026-04-15 11:15 23.57022 47.36112 20237 ft 390 kts 307°
2026-04-15 11:16 23.58631 47.33731 19700 ft 389 kts 307°
2026-04-15 11:16 23.60232 47.31362 19177 ft 387 kts 307°
2026-04-15 11:16 23.61826 47.29003 18681 ft 385 kts 307°
2026-04-15 11:16 23.63409 47.26659 18178 ft 384 kts 307°
2026-04-15 11:17 23.64986 47.24322 17685 ft 381 kts 307°
2026-04-15 11:17 23.66550 47.22004 17222 ft 377 kts 307°
2026-04-15 11:17 23.68098 47.19709 16760 ft 373 kts 306°
2026-04-15 11:17 23.69676 47.17493 16577 ft 363 kts 311°
2026-04-15 11:18 23.71463 47.15554 16571 ft 364 kts 318°
2026-04-15 11:18 23.73458 47.13798 16576 ft 369 kts 323°
2026-04-15 11:18 23.75583 47.12168 16469 ft 375 kts 324°
2026-04-15 11:18 23.77709 47.10567 15991 ft 376 kts 324°
2026-04-15 11:19 23.79893 47.08932 15460 ft 375 kts 324°
2026-04-15 11:19 23.81994 47.07355 15068 ft 369 kts 324°
2026-04-15 11:19 23.84117 47.05757 14687 ft 363 kts 324°
2026-04-15 11:19 23.86153 47.04218 14269 ft 359 kts 323°
2026-04-15 11:20 23.88202 47.02666 13774 ft 357 kts 323°
2026-04-15 11:20 23.90238 47.01120 13231 ft 356 kts 323°
2026-04-15 11:20 23.92265 46.99578 12710 ft 354 kts 323°
2026-04-15 11:20 23.94285 46.98041 12214 ft 352 kts 324°
2026-04-15 11:21 23.96306 46.96501 12045 ft 357 kts 324°
2026-04-15 11:21 23.98340 46.94952 11999 ft 354 kts 324°
2026-04-15 11:21 24.00351 46.93421 11995 ft 351 kts 324°
2026-04-15 11:21 24.02358 46.91892 11999 ft 352 kts 324°
2026-04-15 11:22 24.04347 46.90374 11997 ft 352 kts 324°
2026-04-15 11:22 24.06313 46.88876 11709 ft 351 kts 324°
2026-04-15 11:22 24.08337 46.87334 11241 ft 350 kts 324°
2026-04-15 11:22 24.10336 46.85805 10707 ft 350 kts 324°
2026-04-15 11:23 24.12330 46.84281 10287 ft 347 kts 324°
2026-04-15 11:23 24.14244 46.82819 10154 ft 323 kts 324°
2026-04-15 11:23 24.16027 46.81457 9972 ft 301 kts 324°
2026-04-15 11:23 24.17696 46.80181 9602 ft 287 kts 324°
2026-04-15 11:24 24.19342 46.78924 9104 ft 288 kts 325°
2026-04-15 11:24 24.20991 46.77662 8754 ft 289 kts 325°
2026-04-15 11:24 24.22635 46.76403 8451 ft 287 kts 326°
2026-04-15 11:24 24.24262 46.75157 8165 ft 284 kts 326°
2026-04-15 11:25 24.25876 46.73923 7897 ft 282 kts 326°
2026-04-15 11:25 24.27463 46.72707 7568 ft 282 kts 326°
2026-04-15 11:25 24.29085 46.71463 7533 ft 286 kts 326°
2026-04-15 11:25 24.30714 46.70215 7499 ft 285 kts 326°
2026-04-15 11:26 24.32339 46.68971 7350 ft 283 kts 326°
2026-04-15 11:26 24.33955 46.67733 7143 ft 284 kts 326°
2026-04-15 11:26 24.35576 46.66490 6963 ft 284 kts 326°
2026-04-15 11:26 24.37193 46.65247 6803 ft 284 kts 326°
2026-04-15 11:27 24.38812 46.64004 6644 ft 284 kts 326°
2026-04-15 11:27 24.40428 46.62762 6458 ft 284 kts 326°
2026-04-15 11:27 24.42042 46.61523 6297 ft 283 kts 327°
2026-04-15 11:27 24.43767 46.60597 6075 ft 274 kts 352°
2026-04-15 11:28 24.45606 46.60454 6042 ft 260 kts 359°
2026-04-15 11:28 24.47391 46.60374 6029 ft 255 kts 359°
2026-04-15 11:28 24.49154 46.60277 6028 ft 252 kts 359°
2026-04-15 11:28 24.50913 46.60168 6027 ft 254 kts 358°
2026-04-15 11:29 24.52689 46.60048 6008 ft 257 kts 358°
2026-04-15 11:29 24.54446 46.59917 6026 ft 258 kts 358°
2026-04-15 11:29 24.56239 46.59778 6025 ft 258 kts 357°
2026-04-15 11:29 24.58037 46.59637 6023 ft 259 kts 358°
2026-04-15 11:30 24.59830 46.59495 6022 ft 257 kts 357°
2026-04-15 11:30 24.61605 46.59353 6015 ft 254 kts 357°
2026-04-15 11:30 24.63353 46.59208 6011 ft 252 kts 356°
2026-04-15 11:30 24.65102 46.59066 6009 ft 252 kts 357°
2026-04-15 11:31 24.66852 46.58922 6021 ft 254 kts 357°
2026-04-15 11:31 24.68628 46.58773 6029 ft 256 kts 356°
2026-04-15 11:31 24.70408 46.58624 6006 ft 256 kts 357°
2026-04-15 11:31 24.72126 46.58483 6019 ft 255 kts 357°
2026-04-15 11:32 24.73892 46.58339 6003 ft 254 kts 356°
2026-04-15 11:32 24.75649 46.58189 6026 ft 254 kts 356°
2026-04-15 11:32 24.77411 46.58044 6019 ft 253 kts 357°
2026-04-15 11:32 24.79170 46.57899 6016 ft 254 kts 356°
2026-04-15 11:33 24.80941 46.57754 6007 ft 255 kts 356°
2026-04-15 11:33 24.82705 46.57606 6014 ft 255 kts 356°
2026-04-15 11:33 24.84476 46.57458 6007 ft 255 kts 356°
2026-04-15 11:33 24.86244 46.57310 6020 ft 255 kts 356°
2026-04-15 11:34 24.88015 46.57163 6010 ft 255 kts 356°
2026-04-15 11:34 24.89781 46.57005 6004 ft 253 kts 353°
2026-04-15 11:34 24.91417 46.56363 6025 ft 252 kts 330°
2026-04-15 11:34 24.92945 46.55341 6032 ft 261 kts 330°
2026-04-15 11:35 24.94508 46.54324 6025 ft 257 kts 330°
2026-04-15 11:35 24.96012 46.53357 6010 ft 244 kts 330°
2026-04-15 11:35 24.97424 46.52455 5988 ft 231 kts 330°
2026-04-15 11:35 24.98772 46.51596 5976 ft 216 kts 330°
2026-04-15 11:36 25.00063 46.50773 6026 ft 214 kts 331°
2026-04-15 11:36 25.01370 46.49944 6047 ft 218 kts 331°
2026-04-15 11:36 25.02689 46.49114 6023 ft 218 kts 330°
2026-04-15 11:36 25.03999 46.48283 6014 ft 216 kts 330°
2026-04-15 11:37 25.05293 46.47465 5999 ft 213 kts 330°
2026-04-15 11:37 25.06572 46.46655 6012 ft 212 kts 330°
2026-04-15 11:37 25.07850 46.45847 6012 ft 211 kts 330°
2026-04-15 11:37 25.09124 46.45040 6001 ft 211 kts 330°
2026-04-15 11:38 25.10396 46.44234 6012 ft 210 kts 332°
2026-04-15 11:38 25.11771 46.43832 5989 ft 204 kts
2026-04-15 11:38 25.13081 46.44404 6014 ft 208 kts 42°
2026-04-15 11:38 25.13951 46.45672 6027 ft 211 kts 60°
2026-04-15 11:39 25.14662 46.47107 6019 ft 212 kts 63°
2026-04-15 11:39 25.15331 46.48506 5997 ft 204 kts 63°
2026-04-15 11:39 25.15990 46.49898 5996 ft 202 kts 64°
2026-04-15 11:39 25.16315 46.51338 5983 ft 195 kts 97°
2026-04-15 11:40 25.15835 46.52691 6013 ft 187 kts 122°
2026-04-15 11:40 25.15132 46.53891 6006 ft 185 kts 123°
2026-04-15 11:40 25.14441 46.55066 6021 ft 180 kts 123°
2026-04-15 11:40 25.13768 46.56205 6029 ft 176 kts 123°
2026-04-15 11:41 25.12955 46.57158 6008 ft 167 kts 144°
2026-04-15 11:41 25.12032 46.57898 5936 ft 162 kts 144°
2026-04-15 11:41 25.11086 46.58559 5614 ft 160 kts 148°
2026-04-15 11:41 25.10144 46.59188 5313 ft 156 kts 149°
2026-04-15 11:42 25.09237 46.59767 5018 ft 145 kts 149°
2026-04-15 11:42 25.08365 46.60329 4860 ft 147 kts 149°
2026-04-15 11:42 25.07452 46.60852 4690 ft 150 kts 150°
2026-04-15 11:42 25.06544 46.61465 4419 ft 155 kts 148°
2026-04-15 11:43 25.05676 46.62082 4045 ft 156 kts 146°
2026-04-15 11:43 25.04780 46.62687 3673 ft 143 kts 152°
2026-04-15 11:43 25.03885 46.63172 3555 ft 146 kts 152°
2026-04-15 11:43 25.02990 46.63738 3522 ft 152 kts 146°
2026-04-15 11:44 25.02070 46.64352 3207 ft 153 kts 149°
2026-04-15 11:44 25.01152 46.64907 2988 ft 149 kts 148°
2026-04-15 11:44 25.00255 46.65472 2680 ft 144 kts 149°
2026-04-15 11:44 24.99409 46.66020 2567 ft 144 kts 147°
2026-04-15 11:45 24.98526 46.66591 2407 ft 149 kts 148°
2026-04-15 11:45 24.97611 46.67161 2215 ft 148 kts 149°
2026-04-15 11:45 24.96731 46.67720 2055 ft 147 kts 148°
2026-04-15 11:45 24.95975 46.68197 2052 ft 95 kts 150°
2026-04-15 11:46 24.95628 46.68425 2050 ft 27 kts 141°
2026-04-15 11:46 24.95541 46.68525 2053 ft 10 kts 128°
2026-04-15 11:46 24.95503 46.68590 2050 ft 10 kts 115°
2026-04-15 11:46 24.95490 46.68653 2054 ft 7 kts 98°
2026-04-15 11:47 24.95492 46.68706 2055 ft 7 kts 84°
2026-04-15 11:47 24.95504 46.68748 2052 ft 4 kts 63°
2026-04-15 11:47 24.95512 46.68765 2056 ft 0 kts 62°
2026-04-15 11:47 24.95515 46.68771 2054 ft 1 kts 61°
2026-04-15 11:48 24.95519 46.68783 2052 ft 2 kts 73°
2026-04-15 11:48 24.95521 46.68816 2053 ft 12 kts 97°
2026-04-15 11:48 24.95473 46.68857 2052 ft 9 kts 150°
2026-04-15 11:48 24.95417 46.68891 2050 ft 9 kts 150°
2026-04-15 11:49 24.95361 46.68926 2052 ft 9 kts 150°
2026-04-15 11:49 24.95306 46.68962 2052 ft 9 kts 149°
2026-04-15 11:49 24.95250 46.68997 2051 ft 9 kts 150°
2026-04-15 11:49 24.95194 46.69032 2050 ft 9 kts 150°
2026-04-15 11:50 24.95102 46.69090 2056 ft 20 kts 150°
2026-04-15 11:50 24.94966 46.69176 2054 ft 25 kts 150°
2026-04-15 11:50 24.94836 46.69259 2052 ft 22 kts 150°
2026-04-15 11:50 24.94706 46.69341 2053 ft 22 kts 150°
2026-04-15 11:51 24.94575 46.69424 2052 ft 22 kts 150°
2026-04-15 11:51 24.94514 46.69509 2051 ft 14 kts 79°
2026-04-15 11:51 24.94559 46.69604 2053 ft 14 kts 59°
2026-04-15 11:51 24.94611 46.69701 2055 ft 16 kts 59°
2026-04-15 11:52 24.94667 46.69806 2053 ft 18 kts 59°
2026-04-15 11:52 24.94713 46.69894 2057 ft 12 kts 60°
2026-04-15 11:52 24.94763 46.69991 2056 ft 19 kts 59°
2026-04-15 11:52 24.94832 46.70123 2058 ft 20 kts 59°
2026-04-15 11:53 24.94901 46.70254 2063 ft 20 kts 60°
2026-04-15 11:53 24.94970 46.70386 2062 ft 20 kts 59°
2026-04-15 11:53 24.95039 46.70516 2060 ft 21 kts 59°
2026-04-15 11:53 24.95114 46.70658 2055 ft 22 kts 60°
2026-04-15 11:54 24.95192 46.70807 2055 ft 23 kts 60°
2026-04-15 11:54 24.95272 46.70959 2055 ft 23 kts 59°
2026-04-15 11:54 24.95358 46.71023 2056 ft 11 kts 333°
2026-04-15 11:54 24.95422 46.70973 2057 ft 11 kts 329°
2026-04-15 11:55 24.95489 46.70930 2057 ft 11 kts 330°
2026-04-15 11:55 24.95568 46.70880 2059 ft 14 kts 330°
2026-04-15 11:55 24.95651 46.70828 2056 ft 14 kts 330°
2026-04-15 11:55 24.95736 46.70775 2054 ft 16 kts 330°
2026-04-15 11:56 24.95847 46.70706 2057 ft 21 kts 330°
2026-04-15 11:56 24.95974 46.70626 2057 ft 18 kts 330°
2026-04-15 11:56 24.96052 46.70576 2054 ft 10 kts 330°
2026-04-15 11:56 24.96115 46.70536 2060 ft 11 kts 330°
2026-04-15 11:57 24.96179 46.70496 2055 ft 11 kts 330°
2026-04-15 11:57 24.96314 46.70408 2054 ft 15 kts 327°
2026-04-15 11:57 24.96304 46.70320 2052 ft 15 kts 202°
2026-04-15 11:58 24.96231 46.70295 2059 ft 9 kts 197°
2026-04-15 11:58 24.96215 46.70289 2058 ft 0 kts 197°